STARLINK-1776

decayed
NORAD ID: 46682 Int'l Des: 2020-073 Owner: SPXS Country: US Constellation: starlink
LEOCIRCULAR
グループ

STARLINK-1776について

説明を読み込み中...

高度履歴

Altitude vs Time

uPlot chart will show altitude changes over time

軌道要素

1 46682U 20073N 25037.71560852 .08473893 12276-4 92856-3 0 9996
2 46682 53.0273 199.1192 0006955 276.2720 182.8929 16.36432438238317
Epoch: Feb 6, 2025 • Age: 5153 hours

現在のステータス

Position data unavailable
打ち上げ日 Oct 18, 2020
運用期間 4.8 years
落下予定日 Feb 7, 2025
タイプ internet

技術仕様

分類 Payload
質量 260.00 kg
乾燥質量 248.00 kg
総質量 260.00 kg
長さ 0.20 m
直径 2.80 m
スパン 9.00 m
形状 Box + pan
製造者 SPXS
バスタイプ Starlink
フェーズステータス Unknown Transfer Status
所有者/国 SPXS/US

大規模コンステレーション

Loading constellations...